sat.trackr.live / text

‹ back to catalog

DEIMOS-1

NORAD 35681 · 2009-041A

PAYLOAD ACTIVE UNKNOWN

§ Identity

Operator
Country
SPN
Launch date
2009-07-29
Launch site
TYMSC
Launch vehicle
Mass (kg)
RCS (m²)
0.23

Purposes: earth_obs

External: N2YO · Heavens-Above · Gunter

§ Orbital elements

Epoch: 2026-05-25T04:37:39.605664Z

Period
97.61 min
Inclination
97.7383°
Eccentricity
0.0000241
Mean motion
14.75207902 rev/d
Perigee alt
644.3 km
Apogee alt
644.7 km
Semi-major
7,022.6 km
B*
4.7259e-5
RAAN
303.4209°
Arg perigee
93.7238°
Mean anomaly
266.4000°
Rev number
90,349

§ Raw data

DEIMOS-11 35681U 09041A   26145.19281951  .00000272  00000+0  47259-4 0  99922 35681  97.7383 303.4209 0000241  93.7238 266.4000 14.75207902903492

JSON: /api/v1/satellites/35681 · /tle

For live sub-satellite position, see the globe view (requires WebGL).

§ Visibility from observer

Set your observer location to see the next 7 days of passes ≥ 10°. The values pass through the URL so the page stays shareable.

No JS? Fill the form by hand. The geolocation button needs JavaScript.

§ Radio — SatNOGS DB

ModeDescriptionDownlinkUplink
FM S-band telemetry 2.240 GHz

1 transmitter · refreshed weekly from db.satnogs.org